Time,TemperatureF,DewpointF,PressureIn,WindDirection,WindDirectionDegrees,WindSpeedMPH,WindSpeedGustMPH,Humidity,HourlyPrecipIn,Conditions,Clouds,dailyrainin,SolarRadiationWatts/m^2,SoftwareType,DateUTC
2013-07-29 00:02:00,61.0,39.0,-100.00,West,260,6.0,10.0,44,0.00,,,0.00,0.000000,,2013-07-29 07:02:00,
2013-07-29 00:12:00,61.0,39.0,-100.00,West,260,6.0,10.0,44,0.00,,,0.00,0.000000,,2013-07-29 07:12:00,
2013-07-29 00:22:00,61.0,39.0,-100.00,West,260,6.0,10.0,44,0.00,,,0.00,0.000000,,2013-07-29 07:22:00,
2013-07-29 00:33:00,61.0,39.0,-100.00,West,260,6.0,10.0,44,0.00,,,0.00,0.000000,,2013-07-29 07:33:00,
2013-07-29 01:02:00,60.0,41.0,-100.00,WSW,256,5.0,9.0,49,0.00,,,0.00,0.000000,,2013-07-29 08:02:00,
2013-07-29 01:12:00,60.0,41.0,-100.00,WSW,256,5.0,9.0,49,0.00,,,0.00,0.000000,,2013-07-29 08:12:00,
2013-07-29 01:22:00,60.0,41.0,-100.00,WSW,256,5.0,9.0,49,0.00,,,0.00,0.000000,,2013-07-29 08:22:00,
2013-07-29 01:33:00,60.0,41.0,-100.00,WSW,256,5.0,9.0,49,0.00,,,0.00,0.000000,,2013-07-29 08:33:00,
2013-07-29 02:02:00,59.0,41.0,-100.00,WSW,257,5.0,9.0,51,0.00,,,0.00,0.000000,,2013-07-29 09:02:00,
2013-07-29 02:12:00,59.0,41.0,-100.00,WSW,257,5.0,9.0,51,0.00,,,0.00,0.000000,,2013-07-29 09:12:00,
2013-07-29 02:22:00,59.0,41.0,-100.00,WSW,257,5.0,9.0,51,0.00,,,0.00,0.000000,,2013-07-29 09:22:00,
2013-07-29 02:33:00,59.0,41.0,-100.00,WSW,257,5.0,9.0,51,0.00,,,0.00,0.000000,,2013-07-29 09:33:00,
2013-07-29 03:02:00,59.0,40.0,-100.00,West,262,4.0,6.0,50,0.00,,,0.00,0.000000,,2013-07-29 10:02:00,
2013-07-29 03:13:00,59.0,40.0,-100.00,West,262,4.0,6.0,50,0.00,,,0.00,0.000000,,2013-07-29 10:13:00,
2013-07-29 03:23:00,59.0,40.0,-100.00,West,262,4.0,6.0,50,0.00,,,0.00,0.000000,,2013-07-29 10:23:00,
2013-07-29 03:33:00,59.0,40.0,-100.00,West,262,4.0,6.0,50,0.00,,,0.00,0.000000,,2013-07-29 10:33:00,
2013-07-29 04:03:00,58.0,40.0,-100.00,West,261,4.0,7.0,51,0.00,,,0.00,0.000000,,2013-07-29 11:03:00,
2013-07-29 04:14:00,58.0,40.0,-100.00,West,261,4.0,7.0,51,0.00,,,0.00,0.000000,,2013-07-29 11:14:00,
2013-07-29 04:22:00,58.0,40.0,-100.00,West,261,4.0,7.0,51,0.00,,,0.00,0.000000,,2013-07-29 11:22:00,
2013-07-29 04:34:00,58.0,40.0,-100.00,West,261,4.0,7.0,51,0.00,,,0.00,0.000000,,2013-07-29 11:34:00,
2013-07-29 05:05:00,57.0,37.0,-100.00,West,265,5.0,7.0,47,0.00,,,0.00,0.000000,,2013-07-29 12:05:00,
2013-07-29 05:13:00,57.0,37.0,-100.00,West,265,5.0,7.0,47,0.00,,,0.00,0.000000,,2013-07-29 12:13:00,
2013-07-29 05:23:00,57.0,37.0,-100.00,West,265,5.0,7.0,47,0.00,,,0.00,0.000000,,2013-07-29 12:23:00,
2013-07-29 05:33:00,57.0,37.0,-100.00,West,265,5.0,7.0,47,0.00,,,0.00,0.000000,,2013-07-29 12:33:00,
2013-07-29 06:03:00,56.0,37.0,-100.00,West,262,4.0,8.0,49,0.00,,,0.00,0.000000,,2013-07-29 13:03:00,
2013-07-29 06:14:00,56.0,37.0,-100.00,West,262,4.0,8.0,49,0.00,,,0.00,0.000000,,2013-07-29 13:14:00,
2013-07-29 06:23:00,56.0,37.0,-100.00,West,262,4.0,8.0,49,0.00,,,0.00,0.000000,,2013-07-29 13:23:00,
2013-07-29 06:33:00,56.0,37.0,-100.00,West,262,4.0,8.0,49,0.00,,,0.00,0.000000,,2013-07-29 13:33:00,
2013-07-29 07:03:00,59.0,39.0,-100.00,West,261,5.0,7.0,47,0.00,,,0.00,42.000000,,2013-07-29 14:03:00,
2013-07-29 07:12:00,59.0,39.0,-100.00,West,261,5.0,7.0,47,0.00,,,0.00,42.000000,,2013-07-29 14:12:00,
2013-07-29 07:24:00,59.0,39.0,-100.00,West,261,5.0,7.0,47,0.00,,,0.00,42.000000,,2013-07-29 14:24:00,
2013-07-29 07:33:00,59.0,39.0,-100.00,West,261,5.0,7.0,47,0.00,,,0.00,42.000000,,2013-07-29 14:33:00,
2013-07-29 08:05:00,69.0,45.0,-100.00,WSW,249,4.0,6.0,42,0.00,,,0.00,291.000000,,2013-07-29 15:05:00,
2013-07-29 08:12:00,69.0,45.0,-100.00,WSW,249,4.0,6.0,42,0.00,,,0.00,291.000000,,2013-07-29 15:12:00,
2013-07-29 08:24:00,69.0,45.0,-100.00,WSW,249,4.0,6.0,42,0.00,,,0.00,291.000000,,2013-07-29 15:24:00,
2013-07-29 08:34:00,69.0,45.0,-100.00,WSW,249,4.0,6.0,42,0.00,,,0.00,291.000000,,2013-07-29 15:34:00,
2013-07-29 09:04:00,72.0,43.0,-100.00,WSW,248,3.0,7.0,35,0.00,,,0.00,549.000000,,2013-07-29 16:04:00,
2013-07-29 09:12:00,72.0,43.0,-100.00,WSW,248,3.0,7.0,35,0.00,,,0.00,549.000000,,2013-07-29 16:12:00,
2013-07-29 09:23:00,72.0,43.0,-100.00,WSW,248,3.0,7.0,35,0.00,,,0.00,549.000000,,2013-07-29 16:23:00,
2013-07-29 10:13:00,74.0,45.0,-100.00,SW,227,4.0,9.0,35,0.00,,,0.00,801.000000,,2013-07-29 17:13:00,
2013-07-29 10:23:00,74.0,45.0,-100.00,SW,227,4.0,9.0,35,0.00,,,0.00,801.000000,,2013-07-29 17:23:00,
2013-07-29 11:13:00,76.0,48.0,-100.00,SW,221,4.0,8.0,37,0.00,,,-99.99,1000.000000,,2013-07-29 18:13:00,
2013-07-29 12:03:00,78.0,47.0,-100.00,SW,232,3.0,7.0,33,0.00,,,0.00,1131.000000,,2013-07-29 19:03:00,
2013-07-29 12:14:00,78.0,47.0,-100.00,SW,232,3.0,7.0,33,0.00,,,0.00,1131.000000,,2013-07-29 19:14:00,
2013-07-29 13:04:00,80.0,48.0,-100.00,WSW,237,4.0,9.0,33,0.00,,,0.00,1198.000000,,2013-07-29 20:04:00,
2013-07-29 13:14:00,80.0,48.0,-100.00,WSW,237,4.0,9.0,33,0.00,,,0.00,1198.000000,,2013-07-29 20:14:00,
2013-07-29 13:23:00,80.0,48.0,-100.00,WSW,237,4.0,9.0,33,0.00,,,0.00,1198.000000,,2013-07-29 20:23:00,
2013-07-29 13:33:00,80.0,48.0,-100.00,WSW,237,4.0,9.0,33,0.00,,,0.00,1198.000000,,2013-07-29 20:33:00,
2013-07-29 14:15:00,80.0,46.0,-100.00,WSW,245,4.0,11.0,30,0.00,,,0.00,1197.000000,,2013-07-29 21:15:00,
2013-07-29 14:33:00,80.0,46.0,-100.00,WSW,245,4.0,11.0,30,0.00,,,0.00,1197.000000,,2013-07-29 21:33:00,
2013-07-29 15:03:00,81.0,47.0,-100.00,WSW,241,4.0,11.0,31,0.00,,,0.00,1125.000000,,2013-07-29 22:03:00,
2013-07-29 15:13:00,81.0,47.0,-100.00,WSW,241,4.0,11.0,31,0.00,,,0.00,1125.000000,,2013-07-29 22:13:00,
2013-07-29 15:23:00,81.0,47.0,-100.00,WSW,241,4.0,11.0,31,0.00,,,0.00,1125.000000,,2013-07-29 22:23:00,
2013-07-29 15:34:00,81.0,47.0,-100.00,WSW,241,4.0,11.0,31,0.00,,,0.00,1125.000000,,2013-07-29 22:34:00,
2013-07-29 16:04:00,81.0,46.0,-100.00,WSW,237,4.0,11.0,29,0.00,,,0.00,987.000000,,2013-07-29 23:04:00,
2013-07-29 16:24:00,81.0,46.0,-100.00,WSW,237,4.0,11.0,29,0.00,,,0.00,987.000000,,2013-07-29 23:24:00,
2013-07-29 16:34:00,81.0,46.0,-100.00,WSW,237,4.0,11.0,29,0.00,,,0.00,987.000000,,2013-07-29 23:34:00,
2013-07-29 17:15:00,82.0,51.0,-100.00,West,272,5.0,11.0,34,0.00,,,0.00,781.000000,,2013-07-30 00:15:00,
2013-07-29 17:23:00,82.0,51.0,-100.00,West,272,5.0,11.0,34,0.00,,,0.00,781.000000,,2013-07-30 00:23:00,
2013-07-29 18:05:00,78.0,47.0,-100.00,WSW,250,6.0,12.0,33,0.00,,,0.00,531.000000,,2013-07-30 01:05:00,
2013-07-29 18:23:00,78.0,47.0,-100.00,WSW,250,6.0,12.0,33,0.00,,,0.00,531.000000,,2013-07-30 01:23:00,
2013-07-29 18:33:00,78.0,47.0,-100.00,WSW,250,6.0,12.0,33,0.00,,,0.00,531.000000,,2013-07-30 01:33:00,
2013-07-29 19:04:00,73.0,46.0,-100.00,WSW,253,6.0,14.0,38,0.00,,,0.00,237.000000,,2013-07-30 02:04:00,
2013-07-29 19:13:00,73.0,46.0,-100.00,WSW,253,6.0,14.0,38,0.00,,,0.00,237.000000,,2013-07-30 02:13:00,
2013-07-29 19:23:00,73.0,46.0,-100.00,WSW,253,6.0,14.0,38,0.00,,,0.00,237.000000,,2013-07-30 02:23:00,
2013-07-29 19:34:00,73.0,46.0,-100.00,WSW,253,6.0,14.0,38,0.00,,,0.00,237.000000,,2013-07-30 02:34:00,
2013-07-29 20:15:00,66.0,43.0,-100.00,WNW,287,4.0,10.0,44,0.00,,,-99.99,46.000000,,2013-07-30 03:15:00,
2013-07-29 20:23:00,66.0,43.0,-100.00,WNW,287,4.0,10.0,44,0.00,,,-99.99,46.000000,,2013-07-30 03:23:00,
2013-07-29 20:33:00,66.0,43.0,-100.00,WNW,287,4.0,10.0,44,0.00,,,-99.99,46.000000,,2013-07-30 03:33:00,
2013-07-29 21:03:00,65.0,43.0,-100.00,NW,306,4.0,7.0,44,0.00,,,0.00,0.000000,,2013-07-30 04:03:00,
2013-07-29 21:12:00,65.0,43.0,-100.00,NW,306,4.0,7.0,44,0.00,,,0.00,0.000000,,2013-07-30 04:12:00,
2013-07-29 21:22:00,65.0,43.0,-100.00,NW,306,4.0,7.0,44,0.00,,,0.00,0.000000,,2013-07-30 04:22:00,
2013-07-29 21:32:00,65.0,43.0,-100.00,NW,306,4.0,7.0,44,0.00,,,0.00,0.000000,,2013-07-30 04:32:00,
2013-07-29 22:03:00,65.0,43.0,-100.00,NW,315,3.0,6.0,44,0.00,,,0.00,0.000000,,2013-07-30 05:03:00,
2013-07-29 22:12:00,65.0,43.0,-100.00,NW,315,3.0,6.0,44,0.00,,,0.00,0.000000,,2013-07-30 05:12:00,
2013-07-29 22:22:00,65.0,43.0,-100.00,NW,315,3.0,6.0,44,0.00,,,0.00,0.000000,,2013-07-30 05:22:00,
2013-07-29 22:32:00,65.0,43.0,-100.00,NW,315,3.0,6.0,44,0.00,,,0.00,0.000000,,2013-07-30 05:32:00,
2013-07-29 23:02:00,65.0,43.0,-100.00,WNW,297,2.0,5.0,44,0.00,,,0.00,0.000000,,2013-07-30 06:02:00,
2013-07-29 23:12:00,65.0,43.0,-100.00,WNW,297,2.0,5.0,44,0.00,,,0.00,0.000000,,2013-07-30 06:12:00,
2013-07-29 23:22:00,65.0,43.0,-100.00,WNW,297,2.0,5.0,44,0.00,,,0.00,0.000000,,2013-07-30 06:22:00,
2013-07-29 23:32:00,65.0,43.0,-100.00,WNW,297,2.0,5.0,44,0.00,,,0.00,0.000000,,2013-07-30 06:32:00,